THY9FG LSGG-LTFM

Flight info

Callsign THY9FG
Flight time N/A
Altitude 37000
Route MEDAM DCT NITAM DCT MOGBO DCT ASTIG DCT ABMOG DCT IPKIS DCT NUPSO DCT TODNI DCT NISVA L614 GERGI T391 AYTEK
Aircraft B739/M-SDE2E3FGHIRWXY/LB1

Departure

Time 2026-05-05 07:17
Airport Geneva International Airport (LSGG)

Arrival

Time N/A
Airport İstanbul Airport (LTFM)
Time Latitude Longitude Altitude Speed Heading
2026-05-05 06:34 46.23168 6.10437 1400 ft 0 kts 181°
2026-05-05 07:08 46.23167 6.10437 1392 ft 0 kts 181°
2026-05-05 07:09 46.23147 6.10436 1398 ft 6 kts 181°
2026-05-05 07:09 46.23104 6.10443 1396 ft 6 kts 157°
2026-05-05 07:09 46.23073 6.10488 1392 ft 3 kts 111°
2026-05-05 07:09 46.23076 6.10521 1393 ft 4 kts 68°
2026-05-05 07:10 46.23107 6.10573 1394 ft 10 kts 46°
2026-05-05 07:10 46.23166 6.10659 1399 ft 14 kts 45°
2026-05-05 07:10 46.23240 6.10765 1394 ft 16 kts 37°
2026-05-05 07:10 46.23328 6.10808 1393 ft 11 kts 28°
2026-05-05 07:11 46.23386 6.10889 1397 ft 13 kts 45°
2026-05-05 07:11 46.23457 6.10995 1399 ft 16 kts 45°
2026-05-05 07:11 46.23543 6.11121 1393 ft 19 kts 45°
2026-05-05 07:11 46.23599 6.11163 1387 ft 4 kts 343°
2026-05-05 07:12 46.23626 6.11129 1388 ft 7 kts 316°
2026-05-05 07:12 46.23672 6.11070 1385 ft 4 kts 331°
2026-05-05 07:12 46.23712 6.11092 1381 ft 9 kts 44°
2026-05-05 07:12 46.23783 6.11194 1378 ft 19 kts 45°
2026-05-05 07:13 46.23882 6.11340 1376 ft 22 kts 45°
2026-05-05 07:13 46.24000 6.11513 1371 ft 26 kts 45°
2026-05-05 07:13 46.24130 6.11704 1365 ft 27 kts 45°
2026-05-05 07:13 46.24228 6.11848 1361 ft 19 kts 45°
2026-05-05 07:14 46.24322 6.11986 1363 ft 19 kts 45°
2026-05-05 07:14 46.24413 6.12119 1368 ft 18 kts 45°
2026-05-05 07:14 46.24500 6.12248 1371 ft 18 kts 46°
2026-05-05 07:14 46.24588 6.12376 1370 ft 19 kts 46°
2026-05-05 07:15 46.24693 6.12531 1363 ft 24 kts 45°
2026-05-05 07:15 46.24817 6.12675 1362 ft 21 kts 17°
2026-05-05 07:15 46.24923 6.12723 1365 ft 7 kts 17°
2026-05-05 07:15 46.24970 6.12739 1368 ft 7 kts
2026-05-05 07:16 46.25011 6.12718 1368 ft 6 kts 320°
2026-05-05 07:16 46.25013 6.12662 1371 ft 6 kts 237°
2026-05-05 07:16 46.24971 6.12605 1371 ft 18 kts 226°
2026-05-05 07:16 46.24673 6.12167 1371 ft 104 kts 225°
2026-05-05 07:17 46.23987 6.11162 1375 ft 174 kts 225°
2026-05-05 07:17 46.23038 6.09767 1739 ft 205 kts 226°
2026-05-05 07:17 46.22032 6.08283 2779 ft 212 kts 225°
2026-05-05 07:17 46.21011 6.06786 3780 ft 219 kts 223°
2026-05-05 07:18 46.19863 6.05112 4130 ft 252 kts 223°
2026-05-05 07:18 46.18602 6.03268 4800 ft 262 kts 224°
2026-05-05 07:18 46.17322 6.01391 5749 ft 259 kts 224°
2026-05-05 07:18 46.16066 5.99550 6713 ft 257 kts 224°
2026-05-05 07:19 46.14774 5.97749 7538 ft 260 kts 214°
2026-05-05 07:19 46.13061 5.96928 8320 ft 263 kts 182°
2026-05-05 07:19 46.11274 5.97438 8750 ft 269 kts 159°
2026-05-05 07:19 46.09681 5.98945 8898 ft 282 kts 141°
2026-05-05 07:20 46.08274 6.00937 9095 ft 284 kts 138°
2026-05-05 07:20 46.06892 6.02995 9875 ft 287 kts 138°
2026-05-05 07:20 46.05507 6.05061 10687 ft 290 kts 138°
2026-05-05 07:20 46.04042 6.07220 10939 ft 314 kts 138°
2026-05-05 07:21 46.02452 6.09544 11155 ft 336 kts 138°
2026-05-05 07:21 46.00787 6.11971 11640 ft 347 kts 138°
2026-05-05 07:21 45.99079 6.14456 12361 ft 349 kts 138°
2026-05-05 07:21 45.97360 6.16949 13103 ft 352 kts 138°
2026-05-05 07:22 45.95743 6.19290 13707 ft 356 kts 138°
2026-05-05 07:22 45.93991 6.21821 13877 ft 356 kts 138°
2026-05-05 07:22 45.92248 6.24334 13916 ft 354 kts 138°
2026-05-05 07:22 45.90498 6.26852 13966 ft 362 kts 138°
2026-05-05 07:23 45.88690 6.29369 14614 ft 362 kts 142°
2026-05-05 07:23 45.86693 6.31572 15358 ft 360 kts 146°
2026-05-05 07:23 45.84660 6.33678 16000 ft 364 kts 146°
2026-05-05 07:23 45.82598 6.35833 16667 ft 367 kts 146°
2026-05-05 07:24 45.80538 6.38007 17343 ft 370 kts 146°
2026-05-05 07:24 45.78459 6.40210 17985 ft 373 kts 146°
2026-05-05 07:24 45.76368 6.42424 18560 ft 376 kts 146°
2026-05-05 07:24 45.74258 6.44659 19136 ft 379 kts 146°
2026-05-05 07:25 45.72130 6.46910 19702 ft 381 kts 146°
2026-05-05 07:25 45.69991 6.49172 20330 ft 380 kts 145°
2026-05-05 07:25 45.67872 6.51411 20818 ft 383 kts 146°
2026-05-05 07:25 45.65709 6.53692 21241 ft 389 kts 146°
2026-05-05 07:26 45.63516 6.56002 21774 ft 391 kts 146°
2026-05-05 07:26 45.61321 6.58314 22324 ft 392 kts 146°
2026-05-05 07:26 45.59125 6.60625 22889 ft 394 kts 146°
2026-05-05 07:26 45.56910 6.62953 23418 ft 397 kts 146°
2026-05-05 07:27 45.54677 6.65297 23870 ft 400 kts 146°
2026-05-05 07:27 45.52432 6.67652 24305 ft 401 kts 146°
2026-05-05 07:27 45.50174 6.70020 24730 ft 403 kts 146°
2026-05-05 07:27 45.47914 6.72385 25152 ft 406 kts 146°
2026-05-05 07:28 45.45637 6.74765 25558 ft 409 kts 147°
2026-05-05 07:28 45.43310 6.77144 25919 ft 413 kts 147°
2026-05-05 07:28 45.40952 6.79505 26366 ft 414 kts 148°
2026-05-05 07:28 45.38604 6.81847 26944 ft 412 kts 147°
2026-05-05 07:29 45.36264 6.84181 27548 ft 410 kts 148°
2026-05-05 07:29 45.33969 6.86475 28066 ft 409 kts 148°
2026-05-05 07:29 45.31643 6.88803 28570 ft 409 kts 148°
2026-05-05 07:29 45.29306 6.91139 28867 ft 415 kts 148°
2026-05-05 07:30 45.26921 6.93535 28912 ft 425 kts 146°
2026-05-05 07:30 45.22454 6.99378 29334 ft 440 kts 139°
2026-05-05 07:30 45.20308 7.02396 29698 ft 442 kts 139°
2026-05-05 07:31 45.18097 7.05486 30069 ft 443 kts 139°
2026-05-05 07:31 45.15873 7.08564 30327 ft 446 kts 139°
2026-05-05 07:31 45.13648 7.11622 30600 ft 448 kts 139°
2026-05-05 07:31 45.11413 7.14700 30999 ft 446 kts 138°
2026-05-05 07:32 45.09411 7.17970 31380 ft 449 kts 130°
2026-05-05 07:32 45.07595 7.21645 31652 ft 451 kts 128°
2026-05-05 07:32 45.05825 7.25343 31883 ft 454 kts 128°
2026-05-05 07:32 45.04045 7.29028 32174 ft 454 kts 129°
2026-05-05 07:33 45.02240 7.32695 32556 ft 453 kts 129°
2026-05-05 07:33 45.00458 7.36359 32858 ft 454 kts 126°
2026-05-05 07:33 44.99033 7.40403 33107 ft 463 kts 115°
2026-05-05 07:33 44.98095 7.44759 33401 ft 468 kts 106°
2026-05-05 07:34 44.97671 7.49347 33729 ft 472 kts 98°
2026-05-05 07:34 44.97484 7.53965 34034 ft 473 kts 96°
2026-05-05 07:34 44.97334 7.58604 34260 ft 473 kts 96°
2026-05-05 07:34 44.97183 7.63257 34471 ft 474 kts 96°
2026-05-05 07:35 44.97015 7.67950 34702 ft 474 kts 97°
2026-05-05 07:35 44.96828 7.72627 34945 ft 473 kts 97°
2026-05-05 07:35 44.96630 7.77251 35162 ft 474 kts 97°
2026-05-05 07:35 44.96420 7.81951 35372 ft 474 kts 97°
2026-05-05 07:36 44.96208 7.86589 35586 ft 474 kts 97°
2026-05-05 07:36 44.95994 7.91236 35808 ft 474 kts 97°
2026-05-05 07:36 44.95778 7.95892 35992 ft 475 kts 97°
2026-05-05 07:36 44.95560 8.00562 36196 ft 475 kts 97°
2026-05-05 07:37 44.95342 8.05205 36400 ft 475 kts 97°
2026-05-05 07:37 44.95123 8.09854 36576 ft 476 kts 97°
2026-05-05 07:37 44.94901 8.14517 36753 ft 476 kts 98°
2026-05-05 07:37 44.94674 8.19245 36946 ft 477 kts 98°
2026-05-05 07:38 44.94216 8.28678 36975 ft 479 kts 98°
2026-05-05 07:38 44.93619 8.37995 36973 ft 475 kts 100°
2026-05-05 07:39 44.92892 8.47245 36975 ft 473 kts 100°
2026-05-05 07:39 44.92167 8.56449 36970 ft 471 kts 100°
2026-05-05 07:40 44.91460 8.65630 36967 ft 471 kts 100°
2026-05-05 07:40 44.90758 8.74773 36975 ft 472 kts 100°
2026-05-05 07:41 44.90045 8.83977 36975 ft 474 kts 100°
2026-05-05 07:41 44.89318 8.93259 36973 ft 476 kts 100°
2026-05-05 07:42 44.88584 9.02540 36976 ft 478 kts 100°
2026-05-05 07:42 44.87838 9.11865 36985 ft 480 kts 100°
2026-05-05 07:43 44.87080 9.21228 36980 ft 481 kts 100°
2026-05-05 07:43 44.86321 9.30520 36975 ft 481 kts 100°
2026-05-05 07:44 44.85548 9.39899 36979 ft 480 kts 100°
2026-05-05 07:44 44.84767 9.49266 36975 ft 482 kts 100°
2026-05-05 07:45 44.83980 9.58618 36974 ft 481 kts 100°
2026-05-05 07:45 44.83185 9.67972 36971 ft 478 kts 100°
2026-05-05 07:46 44.82390 9.77233 36990 ft 475 kts 100°
2026-05-05 07:46 44.81590 9.86453 36995 ft 473 kts 100°
2026-05-05 07:47 44.80787 9.95631 36987 ft 472 kts 100°
2026-05-05 07:47 44.80114 10.03246 36995 ft 471 kts 100°
2026-05-05 07:48 44.79300 10.12384 36992 ft 471 kts 101°
2026-05-05 07:48 44.78342 10.23035 36994 ft 471 kts 101°
2026-05-05 07:49 44.77647 10.30693 37001 ft 472 kts 101°
2026-05-05 07:49 44.76806 10.39867 36998 ft 474 kts 101°
2026-05-05 07:50 44.75953 10.49108 36987 ft 476 kts 101°
2026-05-05 07:50 44.75092 10.58351 37001 ft 477 kts 101°
2026-05-05 07:51 44.74228 10.67544 37015 ft 478 kts 101°
2026-05-05 07:51 44.73350 10.76806 37005 ft 477 kts 100°
2026-05-05 07:52 44.72466 10.86048 37006 ft 476 kts 100°
2026-05-05 07:52 44.71579 10.95262 37008 ft 475 kts 100°
2026-05-05 07:53 44.70711 11.04525 37006 ft 475 kts 99°
2026-05-05 07:53 44.69893 11.13725 37001 ft 474 kts 99°
2026-05-05 07:54 44.69072 11.22896 37001 ft 473 kts 99°
2026-05-05 07:54 44.68234 11.32095 37013 ft 473 kts 98°
2026-05-05 07:55 44.67387 11.41271 37040 ft 476 kts 100°
2026-05-05 07:55 44.66518 11.50589 37004 ft 477 kts 99°
2026-05-05 07:56 44.65639 11.59919 36975 ft 482 kts 99°
2026-05-05 07:56 44.64763 11.69161 36987 ft 472 kts 99°
2026-05-05 07:57 44.63897 11.78226 37002 ft 468 kts 99°
2026-05-05 07:57 44.63023 11.87276 37021 ft 466 kts 100°
2026-05-05 07:58 44.62145 11.96277 37017 ft 473 kts 99°
2026-05-05 07:58 44.61244 12.05441 37005 ft 477 kts 99°
2026-05-05 07:59 44.60328 12.14699 37010 ft 479 kts 99°
2026-05-05 07:59 44.59404 12.23960 37015 ft 480 kts 99°
2026-05-05 08:00 44.58476 12.33173 37004 ft 481 kts 99°
2026-05-05 08:00 44.57532 12.42478 37004 ft 480 kts 100°
2026-05-05 08:01 44.56582 12.51761 37007 ft 478 kts 100°
2026-05-05 08:01 44.55637 12.60915 37014 ft 476 kts 100°
2026-05-05 08:02 44.54685 12.70060 37024 ft 474 kts 100°
2026-05-05 08:02 44.53728 12.79185 37013 ft 472 kts 100°
2026-05-05 08:03 44.52774 12.88213 37018 ft 472 kts 100°
2026-05-05 08:03 44.51804 12.97313 37023 ft 472 kts 100°
2026-05-05 08:04 44.50829 13.06393 37033 ft 472 kts 100°
2026-05-05 08:04 44.49842 13.15517 37021 ft 472 kts 100°
2026-05-05 08:05 44.48851 13.24613 37022 ft 473 kts 100°
2026-05-05 08:05 44.47853 13.33697 37034 ft 474 kts 100°
2026-05-05 08:06 44.46846 13.42794 37028 ft 475 kts 100°
2026-05-05 08:06 44.45826 13.51940 37030 ft 476 kts 100°
2026-05-05 08:07 44.44798 13.61086 37035 ft 476 kts 101°
2026-05-05 08:07 44.43764 13.70229 37033 ft 476 kts 101°
2026-05-05 08:08 44.42724 13.79348 37040 ft 475 kts 101°
2026-05-05 08:08 44.41674 13.88487 37038 ft 475 kts 101°
2026-05-05 08:09 44.40621 13.97594 37040 ft 474 kts 101°
2026-05-05 08:09 44.39568 14.06627 37040 ft 474 kts 101°
2026-05-05 08:10 44.38505 14.15690 37042 ft 473 kts 101°
2026-05-05 08:10 44.37430 14.24795 37044 ft 473 kts 101°
2026-05-05 08:11 44.36322 14.33848 37039 ft 473 kts 102°
2026-05-05 08:11 44.35022 14.42846 37044 ft 472 kts 103°
2026-05-05 08:12 44.33675 14.51829 37052 ft 473 kts 103°
2026-05-05 08:12 44.32338 14.60848 37043 ft 474 kts 103°
2026-05-05 08:13 44.31011 14.69865 37058 ft 475 kts 103°
2026-05-05 08:13 44.29680 14.78891 37049 ft 475 kts 103°
2026-05-05 08:14 44.28341 14.87911 37061 ft 474 kts 103°
2026-05-05 08:14 44.26998 14.96902 37063 ft 474 kts 103°
2026-05-05 08:15 44.25654 15.05842 37068 ft 473 kts 103°
2026-05-05 08:15 44.24297 15.14823 37070 ft 473 kts 103°
2026-05-05 08:16 44.22934 15.23796 37071 ft 473 kts 103°
2026-05-05 08:16 44.21562 15.32772 37081 ft 473 kts 103°
2026-05-05 08:17 44.20183 15.41746 37071 ft 474 kts 103°
2026-05-05 08:17 44.18807 15.50655 37072 ft 474 kts 103°
2026-05-05 08:18 44.17411 15.59635 37071 ft 474 kts 103°
2026-05-05 08:18 44.16010 15.68611 37067 ft 475 kts 103°
2026-05-05 08:19 44.14599 15.77602 37067 ft 475 kts 103°
2026-05-05 08:19 44.13196 15.86521 37060 ft 476 kts 103°
2026-05-05 08:20 44.11929 15.95549 37072 ft 476 kts 101°
2026-05-05 08:20 44.10726 16.04628 37059 ft 477 kts 101°
2026-05-05 08:21 44.09506 16.13689 37067 ft 477 kts 101°
2026-05-05 08:21 44.08257 16.22767 37072 ft 477 kts 102°
2026-05-05 08:22 44.07001 16.31796 37060 ft 478 kts 102°
2026-05-05 08:22 44.05731 16.40869 37069 ft 479 kts 102°
2026-05-05 08:23 44.04455 16.49934 37070 ft 479 kts 102°
2026-05-05 08:23 44.03169 16.59014 37066 ft 478 kts 102°
2026-05-05 08:24 44.01881 16.68063 37077 ft 478 kts 102°
2026-05-05 08:24 44.00583 16.77120 37079 ft 478 kts 102°
2026-05-05 08:25 43.99286 16.86120 37081 ft 478 kts 102°
2026-05-05 08:25 43.97974 16.95166 37079 ft 478 kts 102°
2026-05-05 08:26 43.96646 17.04271 37072 ft 478 kts 102°
2026-05-05 08:26 43.95320 17.13312 37086 ft 478 kts 102°
2026-05-05 08:27 43.93986 17.22357 37077 ft 478 kts 102°
2026-05-05 08:27 43.92645 17.31390 37085 ft 478 kts 102°
2026-05-05 08:28 43.91299 17.40409 37090 ft 478 kts 102°
2026-05-05 08:28 43.89943 17.49440 37084 ft 478 kts 102°
2026-05-05 08:29 43.88581 17.58464 37085 ft 478 kts 102°
2026-05-05 08:30 43.86522 17.72004 37084 ft 478 kts 102°
2026-05-05 08:30 43.85134 17.81073 37084 ft 478 kts 102°
2026-05-05 08:31 43.83748 17.90079 37087 ft 478 kts 102°
2026-05-05 08:31 43.82356 17.99066 37090 ft 477 kts 102°
2026-05-05 08:32 43.80969 18.07980 37092 ft 476 kts 102°
2026-05-05 08:32 43.79565 18.16950 37102 ft 476 kts 102°
2026-05-05 08:33 43.78155 18.25920 37105 ft 477 kts 102°
2026-05-05 08:33 43.76741 18.34871 37101 ft 477 kts 102°
2026-05-05 08:34 43.75326 18.43848 37115 ft 478 kts 102°
2026-05-05 08:34 43.73904 18.52836 37102 ft 479 kts 102°
2026-05-05 08:35 43.72471 18.61848 37094 ft 480 kts 102°
2026-05-05 08:35 43.71030 18.70855 37099 ft 480 kts 102°
2026-05-05 08:36 43.69568 18.79940 37092 ft 481 kts 102°